2024-174G

Last updated on Fri Oct 25 2024 00:02:04 GMT+0000 (Coordinated Universal Time)

1 61443U 24174G 24298.59647667 .00687456 17194-3 21355-2 0 9990 2 61443 97.4214 305.5765 0107368 275.6182 83.2850 15.82577668 4403

Satellite not in orbit